DW4993 Weather Reports


Display with metric or nautical units.
time (UTC)temp
F
wind
direction
speed
MPH
gust
MPH
rain 1hr
in
rain 24hr
in
rain mn
in
humidity
%
barometer
mb
20260508063305 52 311 0.0 3.0 0.00 0.00 0.00 48 1007.0
20260508062806 52 310 1.0 2.0 0.00 0.00 0.00 48 1007.0
20260508062306 53 269 0.0 0.0 0.00 0.00 0.00 46 1007.0
20260508061805 53 269 0.0 0.0 0.00 0.00 0.00 45 1007.0
20260508061306 54 269 0.0 0.0 0.00 0.00 0.00 45 1006.9
20260508060819 53 269 0.0 0.0 0.00 0.00 0.00 45 1007.0
20260508055805 53 269 0.0 1.0 0.00 0.00 0.00 45 1006.9
20260508055306 53 269 0.0 1.0 0.00 0.00 0.00 44 1007.0
20260508054306 54 269 0.0 1.0 0.00 0.00 0.00 43 1007.0
20260508053805 54 269 0.0 1.0 0.00 0.00 0.00 42 1007.0
20260508053305 54 269 0.0 1.0 0.00 0.00 0.00 42 1007.0
20260508052806 55 269 0.0 0.0 0.00 0.00 0.00 40 1007.0
20260508052307 55 269 0.0 1.0 0.00 0.00 0.00 39 1007.0
20260508051806 56 269 0.0 1.0 0.00 0.00 0.00 40 1007.1
20260508051305 56 269 0.0 1.0 0.00 0.00 0.00 38 1007.1
20260508050807 56 269 1.0 3.0 0.00 0.00 0.00 39 1007.1
20260508050305 55 269 2.0 3.0 0.00 0.00 0.00 40 1007.1
20260508045805 55 293 3.0 3.0 0.00 0.00 0.00 41 1007.2
20260508045307 55 294 0.0 0.0 0.00 0.00 0.00 40 1007.2
20260508044806 55 294 0.0 0.0 0.00 0.00 0.00 40 1007.2
20260508044305 55 294 0.0 0.0 0.00 0.00 0.00 41 1007.2
20260508043806 55 294 0.0 0.0 0.00 0.00 0.00 40 1007.1
20260508043306 55 294 0.0 0.0 0.00 0.00 0.00 40 1007.1
20260508042806 56 294 0.0 0.0 0.00 0.00 0.00 39 1007.1
20260508042307 56 294 0.0 0.0 0.00 0.00 0.00 39 1007.1
20260508041805 56 294 0.0 0.0 0.00 0.00 0.00 39 1007.0
20260508041306 56 294 0.0 0.0 0.00 0.00 0.00 38 1007.1
20260508040805 57 294 0.0 0.0 0.00 0.00 0.00 38 1007.1
20260508040305 57 294 0.0 0.0 0.00 0.00 0.00 37 1007.1
20260508035307 58 294 0.0 0.0 0.00 0.00 0.00 36 1007.1
20260508034805 59 294 0.0 0.0 0.00 0.00 0.00 35 1007.1
20260508034305 59 294 0.0 0.0 0.00 0.00 0.00 36 1007.0
20260508033805 60 294 0.0 0.0 0.00 0.00 0.00 34 1007.0
20260508033306 60 294 0.0 0.0 0.00 0.00 0.00 32 1007.0
20260508032306 61 294 0.0 0.0 0.00 0.00 0.00 31 1007.0
20260508031805 62 294 0.0 0.0 0.00 0.00 0.00 31 1007.0
20260508031306 62 294 0.0 0.0 0.00 0.00 0.00 30 1006.8
20260508030805 63 294 0.0 1.0 0.00 0.00 0.00 29 1006.9
20260508030305 63 294 0.0 2.0 0.00 0.00 0.00 29 1006.8
20260508025805 63 294 1.0 2.0 0.00 0.00 0.00 29 1006.8
20260508025306 64 294 1.0 6.0 0.00 0.00 0.00 30 1006.8
20260508023805 64 230 3.0 8.0 0.00 0.00 0.00 29 1006.7
20260508023306 64 267 2.0 6.0 0.00 0.00 0.00 28 1006.8
20260508022307 64 291 5.0 9.0 0.00 0.00 0.00 28 1006.7
20260508021805 64 217 5.0 10.0 0.00 0.00 0.00 29 1006.7
20260508021306 64 237 9.0 18.0 0.00 0.00 0.00 30 1006.9
20260508013805 65 2 1.0 3.0 0.00 0.00 0.00 28 1006.4
20260508013306 65 5 2.0 3.0 0.00 0.00 0.00 28 1006.4
20260508012806 65 315 2.0 3.0 0.00 0.00 0.00 29 1006.4
20260508012307 66 9 5.0 12.0 0.00 0.00 0.00 28 1006.6
20260508011805 66 10 1.0 3.0 0.00 0.00 0.00 29 1006.3
20260508010305 66 326 1.0 3.0 0.00 0.00 0.00 28 1006.3
20260508005306 67 345 0.0 3.0 0.00 0.00 0.00 28 1006.2
20260508004305 67 331 1.0 3.0 0.00 0.00 0.00 27 1006.3
20260508003805 67 331 2.0 3.0 0.00 0.00 0.00 26 1006.2
20260508003306 67 37 1.0 3.0 0.00 0.00 0.00 27 1006.3
20260508002307 67 100 1.0 3.0 0.00 0.00 0.00 26 1006.3
20260508001805 67 106 0.0 3.0 0.00 0.00 0.00 25 1006.2
20260508001306 67 107 2.0 7.0 0.00 0.00 0.00 25 1006.1
20260508000805 67 90 3.0 9.0 0.00 0.00 0.00 25 1006.0
20260508000305 67 72 1.0 5.0 0.00 0.00 0.00 25 1006.0
20260507235805 68 48 2.0 6.0 0.00 0.00 0.00 25 1006.0
20260507235307 68 27 1.0 2.0 0.00 0.00 0.00 27 1006.0
20260507234305 68 28 2.0 3.0 0.00 0.00 0.00 26 1005.9
20260507233306 67 24 3.0 9.0 0.00 0.00 0.00 27 1006.0
20260507232805 67 29 2.0 7.0 0.00 0.00 0.00 26 1006.0
20260507232306 67 32 5.0 9.0 0.00 0.00 0.00 26 1006.0
20260507230805 67 47 2.0 6.0 0.00 0.00 0.00 26 1006.0
20260507230305 67 20 2.0 8.0 0.00 0.00 0.00 27 1006.0
20260507225805 67 23 3.0 8.0 0.00 0.00 0.00 27 1006.0
20260507225306 67 1 2.0 8.0 0.00 0.00 0.00 26 1006.0
20260507224805 67 12 2.0 8.0 0.00 0.00 0.00 27 1006.1
20260507224305 67 36 5.0 10.0 0.00 0.00 0.00 26 1006.1
20260507223805 67 16 5.0 12.0 0.00 0.00 0.00 26 1006.1
20260507223306 67 21 2.0 8.0 0.00 0.00 0.00 27 1006.1
20260507222805 68 354 2.0 8.0 0.00 0.00 0.00 26 1006.1
20260507222306 68 53 1.0 3.0 0.00 0.00 0.00 25 1006.0
20260507221805 69 97 2.0 6.0 0.00 0.00 0.00 24 1006.2
20260507221306 69 73 3.0 9.0 0.00 0.00 0.00 23 1006.1
20260507220805 70 34 3.0 8.0 0.00 0.00 0.00 24 1006.1
20260507220305 70 28 2.0 10.0 0.00 0.00 0.00 25 1006.1
20260507215806 69 33 3.0 5.0 0.00 0.00 0.00 25 1006.2
20260507215307 69 83 5.0 9.0 0.00 0.00 0.00 23 1006.2
20260507214805 69 27 3.0 8.0 0.00 0.00 0.00 26 1006.2
20260507214305 69 51 5.0 10.0 0.00 0.00 0.00 24 1006.2
20260507213806 69 30 2.0 9.0 0.00 0.00 0.00 25 1006.3
20260507213305 69 31 2.0 9.0 0.00 0.00 0.00 25 1006.3
20260507212805 69 24 2.0 5.0 0.00 0.00 0.00 26 1006.5
20260507212307 69 39 3.0 7.0 0.00 0.00 0.00 24 1006.4
20260507211806 69 53 3.0 9.0 0.00 0.00 0.00 23 1006.4
20260507211305 71 30 3.0 9.0 0.00 0.00 0.00 24 1006.5
20260507210305 71 44 3.0 12.0 0.00 0.00 0.00 25 1006.6
20260507205306 71 9 3.0 6.0 0.00 0.00 0.00 23 1006.7
20260507204305 70 36 4.0 12.0 0.00 0.00 0.00 25 1006.7
20260507203805 70 311 3.0 12.0 0.00 0.00 0.00 27 1006.7
20260507203305 69 10 5.0 12.0 0.00 0.00 0.00 26 1006.9
20260507202805 68 16 3.0 9.0 0.00 0.00 0.00 28 1006.9
20260507201807 68 14 5.0 10.0 0.00 0.00 0.00 26 1006.9
20260507201305 69 21 5.0 9.0 0.00 0.00 0.00 27 1006.9
20260507200805 69 39 4.0 8.0 0.00 0.00 0.00 27 1006.8
20260507200306 68 39 4.0 9.0 0.00 0.00 0.00 30 1006.8
20260507195805 67 26 5.0 12.0 0.00 0.00 0.00 29 1006.8
20260507194805 66 0 4.0 9.0 0.00 0.00 0.00 30 1006.9
20260507193805 68 23 4.0 9.0 0.00 0.00 0.00 27 1006.8
20260507193305 69 8 2.0 6.0 0.00 0.00 0.00 28 1006.8
20260507192805 68 354 3.0 12.0 0.00 0.00 0.00 29 1006.7
20260507192306 68 16 5.0 12.0 0.00 0.00 0.00 30 1006.8
20260507191805 68 16 5.0 12.0 0.00 0.00 0.00 29 1006.9
20260507191305 67 347 3.0 9.0 0.00 0.00 0.00 30 1006.8
20260507190306 67 1 6.0 14.0 0.00 0.00 0.00 30 1006.9
20260507185805 66 308 4.0 12.0 0.00 0.00 0.00 30 1006.9
20260507185306 67 15 5.0 10.0 0.00 0.00 0.00 30 1007.0
20260507184805 67 9 4.0 12.0 0.00 0.00 0.00 30 1007.0
20260507184306 66 10 2.0 10.0 0.00 0.00 0.00 30 1007.0
20260507183805 66 276 4.0 12.0 0.00 0.00 0.00 30 1006.9
20260507183305 66 7 7.0 13.0 0.00 0.00 0.00 32 1007.0
20260507181805 66 46 6.0 12.0 0.00 0.00 0.00 31 1007.1
20260507181305 66 11 7.0 13.0 0.00 0.00 0.00 31 1007.1
20260507180806 66 4 4.0 12.0 0.00 0.00 0.00 33 1007.1
20260507180305 66 10 7.0 13.0 0.00 0.00 0.00 31 1007.2
20260507175805 66 37 7.0 14.0 0.00 0.00 0.00 32 1007.1
20260507175307 65 27 4.0 9.0 0.00 0.00 0.00 33 1007.1
20260507174806 65 16 6.0 16.0 0.00 0.00 0.00 33 1007.2
20260507174306 65 21 5.0 13.0 0.00 0.00 0.00 34 1007.3
20260507173805 64 18 6.0 12.0 0.00 0.00 0.00 34 1007.3
20260507173306 64 27 7.0 14.0 0.00 0.00 0.00 34 1007.4
20260507172805 64 15 4.0 12.0 0.00 0.00 0.00 34 1007.4
20260507172308 64 31 6.0 14.0 0.00 0.00 0.00 34 1007.4
20260507171805 64 36 6.0 13.0 0.00 0.00 0.00 35 1007.4
20260507171306 64 45 5.0 9.0 0.00 0.00 0.00 34 1007.5
20260507170805 64 12 6.0 13.0 0.00 0.00 0.00 35 1007.5
20260507170305 64 32 6.0 13.0 0.00 0.00 0.00 35 1007.6
20260507165806 64 58 6.0 13.0 0.00 0.00 0.00 34 1007.5
20260507165306 64 21 5.0 13.0 0.00 0.00 0.00 34 1007.5
20260507164805 64 6 5.0 16.0 0.00 0.00 0.00 35 1007.5
20260507163805 62 25 6.0 12.0 0.00 0.00 0.00 37 1007.5
20260507163306 62 36 5.0 12.0 0.00 0.00 0.00 38 1007.5
20260507162805 61 15 3.0 10.0 0.00 0.00 0.00 38 1007.6
20260507162307 61 16 5.0 13.0 0.00 0.00 0.00 39 1007.6
20260507161806 61 9 6.0 13.0 0.00 0.00 0.00 39 1007.6
20260507161306 60 5 7.0 13.0 0.00 0.00 0.00 37 1007.6
20260507160806 60 31 9.0 14.0 0.00 0.00 0.00 37 1007.7
20260507160305 61 19 8.0 16.0 0.00 0.00 0.00 37 1007.8
20260507155805 61 10 7.0 13.0 0.00 0.00 0.00 38 1007.8
20260507155306 60 18 7.0 14.0 0.00 0.00 0.00 39 1007.9
20260507154805 59 27 5.0 14.0 0.00 0.00 0.00 41 1008.0
20260507154305 59 24 10.0 15.0 0.00 0.00 0.00 39 1008.1
20260507152306 59 8 7.0 16.0 0.00 0.00 0.00 40 1008.2
20260507151806 57 8 6.0 12.0 0.00 0.00 0.00 42 1008.2
20260507151305 57 30 6.0 12.0 0.00 0.00 0.00 43 1008.3
20260507150805 56 9 6.0 14.0 0.00 0.00 0.00 43 1008.4
20260507150305 56 17 6.0 10.0 0.00 0.00 0.00 43 1008.5
20260507145307 57 11 6.0 12.0 0.00 0.00 0.00 44 1008.5
20260507144805 57 2 5.0 12.0 0.00 0.00 0.00 44 1008.4
20260507144305 57 3 5.0 13.0 0.00 0.00 0.00 47 1008.4
20260507143806 56 9 3.0 9.0 0.00 0.00 0.00 47 1008.3
20260507143305 56 5 2.0 5.0 0.00 0.00 0.00 47 1008.3
20260507142805 56 3 5.0 10.0 0.00 0.00 0.00 46 1008.4
20260507142307 56 5 4.0 10.0 0.00 0.00 0.00 44 1008.3
20260507141805 57 10 5.0 12.0 0.00 0.00 0.00 45 1008.3
20260507141304 57 11 6.0 12.0 0.00 0.00 0.00 44 1008.3
20260507140805 57 25 3.0 10.0 0.00 0.00 0.00 45 1008.3
20260507135306 56 17 3.0 7.0 0.00 0.00 0.00 47 1008.2
20260507134805 56 7 3.0 5.0 0.00 0.00 0.00 48 1008.1
20260507134306 55 4 1.0 5.0 0.00 0.00 0.00 49 1008.0
20260507133304 53 9 3.0 5.0 0.00 0.00 0.00 52 1008.0
20260507132805 53 12 2.0 3.0 0.00 0.00 0.00 53 1008.0
20260507132307 53 14 2.0 6.0 0.00 0.00 0.00 53 1007.9
20260507131805 53 332 1.0 5.0 0.00 0.00 0.00 53 1007.9
20260507131304 53 0 2.0 5.0 0.00 0.00 0.00 53 1007.9
20260507130806 52 1 2.0 8.0 0.00 0.00 0.00 53 1008.0
20260507130305 52 14 3.0 6.0 0.00 0.00 0.00 54 1008.0
20260507125307 53 358 5.0 9.0 0.00 0.00 0.00 53 1007.9
20260507124806 53 4 3.0 10.0 0.00 0.00 0.00 53 1007.9
20260507124305 53 10 5.0 10.0 0.00 0.00 0.00 53 1008.0
20260507123805 52 352 2.0 8.0 0.00 0.00 0.00 53 1008.0
20260507123305 52 5 5.0 9.0 0.00 0.00 0.00 53 1008.0
20260507122806 52 357 2.0 3.0 0.00 0.00 0.00 53 1007.9
20260507122307 52 323 0.0 3.0 0.00 0.00 0.00 52 1007.9
20260507121304 51 298 1.0 3.0 0.00 0.00 0.00 52 1007.8
20260507120806 51 292 1.0 3.0 0.00 0.00 0.00 52 1007.7
20260507120304 50 280 1.0 3.0 0.00 0.00 0.00 53 1007.6
20260507115805 51 279 1.0 2.0 0.00 0.00 0.00 53 1007.5
20260507114806 51 277 0.0 0.0 0.00 0.00 0.00 53 1007.4
20260507113805 51 277 0.0 2.0 0.00 0.00 0.00 53 1007.4
20260507113305 51 277 1.0 2.0 0.00 0.00 0.00 53 1007.4
20260507112307 52 277 0.0 2.0 0.00 0.00 0.00 53 1007.4
20260507111805 52 277 1.0 3.0 0.00 0.00 0.00 53 1007.3
20260507111305 52 277 0.0 2.0 0.00 0.00 0.00 53 1007.2
20260507105805 52 287 0.0 3.0 0.00 0.00 0.00 53 1007.3
20260507105306 52 288 1.0 3.0 0.00 0.00 0.00 53 1007.3
20260507104806 52 293 1.0 3.0 0.00 0.00 0.00 54 1007.3
20260507104305 52 293 1.0 6.0 0.00 0.00 0.00 54 1007.3
20260507102806 53 266 2.0 3.0 0.00 0.00 0.00 58 1007.3
20260507102307 53 268 1.0 2.0 0.00 0.00 0.00 58 1007.3
20260507101805 53 268 0.0 0.0 0.00 0.00 0.00 58 1007.3
20260507101305 53 268 1.0 3.0 0.00 0.00 0.00 58 1007.4
20260507100806 53 268 2.0 3.0 0.00 0.00 0.00 57 1007.4
20260507095805 53 273 2.0 5.0 0.00 0.00 0.00 56 1007.5
20260507095306 53 284 2.0 3.0 0.00 0.00 0.00 57 1007.4
20260507094305 53 268 2.0 7.0 0.00 0.00 0.00 58 1007.5
20260507092806 52 246 3.0 6.0 0.00 0.00 0.00 55 1007.5
20260507091305 52 264 2.0 3.0 0.00 0.00 0.00 55 1007.5
20260507090305 52 258 1.0 2.0 0.00 0.00 0.00 54 1007.5
20260507085306 52 258 2.0 3.0 0.00 0.00 0.00 53 1007.4
20260507084806 52 258 2.0 3.0 0.00 0.00 0.00 53 1007.5
20260507083805 52 254 1.0 3.0 0.00 0.00 0.00 54 1007.4
20260507083304 53 254 2.0 3.0 0.00 0.00 0.00 55 1007.3
20260507082806 53 253 1.0 5.0 0.00 0.00 0.00 56 1007.3
20260507081805 53 256 1.0 3.0 0.00 0.00 0.00 57 1007.5
20260507081305 53 256 2.0 3.0 0.00 0.00 0.00 58 1007.6
20260507080806 53 256 1.0 2.0 0.00 0.00 0.00 57 1007.6
20260507075805 53 256 1.0 2.0 0.00 0.00 0.00 55 1007.7
20260507075307 53 256 1.0 5.0 0.00 0.00 0.00 54 1007.7
20260507074806 52 240 2.0 3.0 0.00 0.00 0.00 53 1007.7
20260507074305 52 200 2.0 3.0 0.00 0.00 0.00 54 1007.8
20260507073805 52 115 1.0 2.0 0.00 0.00 0.00 54 1007.8
20260507073305 52 115 1.0 2.0 0.00 0.00 0.00 53 1007.9
20260507072806 52 115 0.0 3.0 0.00 0.00 0.00 54 1008.0
20260507072307 52 115 1.0 2.0 0.00 0.00 0.00 54 1008.0
20260507071805 51 112 0.0 2.0 0.00 0.00 0.00 52 1008.0
20260507071305 51 112 0.0 1.0 0.00 0.00 0.00 52 1008.0
20260507065804 51 112 0.0 1.0 0.00 0.00 0.00 52 1008.2
20260507065306 51 112 0.0 1.0 0.00 0.00 0.00 52 1008.1
20260507064806 51 112 0.0 0.0 0.00 0.00 0.00 51 1008.2
20260507064305 51 112 0.0 0.0 0.00 0.00 0.00 51 1008.2
20260507063804 51 112 1.0 2.0 0.00 0.00 0.00 51 1008.2